Wind_Speed
3 8 10 13 9 10 10 11 16 12 4 6 13 16 16 16 12 10 12 10 8 8 10 11 13 17 20 18 20 20 21 19 18 15 15 13 12 10 9 8 9 8 7 6
6 6 9 9 6 9 13 15 14 7 6 6 9 13 14 10 11 11 12 10 10 8 11 13 14 18 22 22 20 19 20 22 17 13 13 13 13 11 10 10 9 8 8 7
8 12 8 8 10 10 10 10 12 15 13 11 10 13 14 9 10 7 9 10 11 10 11 12 15 17 21 24 24 22 19 20 16 13 12 11 12 10 10 11 10 10 9 8
7 3 7 10 6 6 11 6 10 13 9 6 6 6 9 9 11 9 11 12 13 13 13 13 14 16 20 21 21 22 19 15 12 12 12 12 12 11 10 13 13 12 11 10
5 9 10 9 4 5 8 7 11 12 10 5 5 4 4 4 8 10 12 14 13 14 14 15 18 23 22 22 24 21 21 16 11 12 11 12 11 10 10 11 11 10 11 10
17 8 4 5 11 9 13 13 14 9 8 3 4 3 5 5 3 9 10 11 13 15 15 15 20 18 24 30 32 28 24 22 17 11 11 13 13 11 12 12 12 12 11 11
12 7 2 3 10 6 10 11 5 3 1 4 3 4 7 6 7 7 8 9 10 10 12 13 11 18 18 22 28 31 29 26 23 22 19 18 19 12 11 12 13 12 13 13
5 5 1 2 3 6 8 5 3 6 8 8 2 3 3 4 3 4 4 4 5 10 10 11 13 15 15 17 17 20 25 25 21 20 24 28 20 13 11 11 11 13 13 10
5 4 2 1 3 3 4 3 4 5 3 4 2 2 5 5 3 3 3 1 5 7 8 10 12 17 18 19 19 22 23 24 26 27 22 22 15 15 14 13 12 12 11 11
3 8 2 1 3 4 4 5 2 1 5 5 2 3 5 6 8 6 4 4 1 2 5 8 8 12 14 16 15 14 13 14 16 17 19 17 16 12 11 11 13 11 10 10
4 3 3 4 1 6 2 2 2 3 2 3 6 5 4 2 5 4 3 2 1 1 2 3 4 5 6 7 9 9 9 12 12 13 16 15 13 12 12 12 11 11 11 10
2 4 6 11 2 2 4 4 4 4 3 3 3 1 5 5 6 3 2 1 1 5 8 6 7 10 10 12 12 13 14 16 16 15 14 13 11 11 11 9 10 10 9 9
1 3 6 2 2 3 3 1 5 5 4 8 4 3 2 3 5 4 1 3 3 4 6 8 8 8 8 7 7 8 10 10 10 11 12 12 12 11 11 12 11 11 10 9
0 4 8 8 12 9 11 11 6 8 5 7 8 7 5 4 11 4 3 3 5 4 2 3 4 4 5 7 9 10 9 9 10 11 11 12 12 12 12 11 11 11 10 9
3 6 8 13 17 17 18 17 14 15 14 7 3 8 13 11 9 4 3 4 5 5 5 6 5 5 6 6 6 6 7 8 10 11 11 11 11 11 11 11 10 9 9 8
3 4 5 8 12 6 12 13 13 13 14 15 16 15 4 5 4 3 4 4 2 3 3 3 3 4 6 7 8 8 9 9 9 10 10 10 10 10 11 9 8 8 8 8
3 3 5 7 7 17 14 5 6 4 4 6 5 3 5 6 6 6 4 3 3 2 1 1 3 5 7 8 9 10 10 10 10 11 11 11 10 9 9 9 10 10 10 8
6 4 3 6 8 5 3 3 3 3 5 5 8 5 5 5 4 4 6 6 6 5 3 3 5 7 7 7 8 9 11 12 12 12 11 11 10 10 10 10 10 9 8 9
8 7 4 3 5 13 5 1 2 1 5 8 4 3 2 3 1 7 8 8 8 8 8 7 7 6 6 8 9 10 11 11 11 12 11 10 10 9 9 9 10 10 10 10
5 7 6 2 4 4 4 3 2 1 3 7 7 7 6 5 3 4 8 9 9 12 11 10 10 6 4 6 8 10 11 12 12 11 10 9 10 10 10 10 10 10 11 11
5 5 10 9 5 8 4 2 2 4 3 4 6 6 7 4 4 6 8 7 10 11 13 13 12 11 9 5 6 9 10 11 8 7 8 9 10 10 10 10 10 9 8 9
8 8 5 5 5 8 6 3 3 4 3 2 3 4 4 6 8 8 7 6 8 11 12 11 10 10 8 5 6 7 7 4 4 5 6 7 7 8 9 9 8 8 7 8
6 8 4 9 5 5 4 3 3 1 2 1 1 3 3 4 3 4 4 6 8 9 10 11 10 11 8 6 5 5 2 1 2 4 5 5 5 5 6 7 7 7 7 8
6 3 4 3 9 10 4 3 1 3 4 3 3 3 3 6 6 6 5 5 7 9 11 12 11 9 7 2 2 1 1 1 3 4 4 4 4 4 5 5 7 8 7 9
1 8 7 5 6 2 5 6 8 5 2 1 1 3 4 5 5 5 6 7 10 10 11 11 9 7 6 4 4 2 2 2 3 3 3 2 1 1 3 5 6 9 11 12
6 8 6 5 4 6 5 6 3 3 2 2 5 6 4 3 4 4 5 8 9 11 12 11 10 9 7 6 6 4 3 4 6 6 4 3 6 6 8 11 15 18 19 18
Wind_Direction
8 294 353 343 327 312 326 297 298 309 340 278 236 235 235 241 214 232 235 206 210 194 176 154 154 152 156 166 174 172 168 170 169 174 168 167 171 174 175 175 175 169 169 162
268 289 356 324 311 299 295 295 309 345 303 260 249 233 236 224 221 232 217 207 206 186 155 154 158 158 167 170 180 182 173 171 176 182 177 178 175 182 180 180 180 179 178 175
288 297 329 323 317 304 303 295 302 321 339 313 280 256 239 217 221 215 223 202 210 190 170 168 168 167 167 175 183 189 184 183 179 184 177 172 171 169 179 186 183 189 184 184
284 317 298 318 303 320 301 327 299 297 308 341 314 320 178 178 198 202 202 200 202 193 182 170 172 172 174 175 188 196 196 190 189 196 186 184 184 184 196 188 187 188 187 189
293 309 318 305 300 268 281 286 288 293 288 291 280 268 102 197 197 189 184 193 202 195 193 180 180 177 178 175 190 199 199 193 188 215 209 202 204 199 178 181 182 185 190 194
268 299 273 301 309 272 307 294 273 259 267 264 23 337 139 166 258 176 183 175 186 183 188 186 180 181 177 178 187 197 205 203 206 218 234 232 218 188 178 178 182 187 192 194
318 237 250 284 306 201 287 329 314 337 341 13 32 307 48 34 34 360 172 175 182 179 177 176 171 179 192 184 185 187 203 197 207 202 205 246 232 198 196 189 189 193 197 203
328 323 298 12 333 317 322 334 352 317 347 331 102 322 44 24 43 40 25 13 196 173 181 186 177 191 193 196 189 189 201 185 200 210 215 227 221 191 196 202 200 206 210 211
324 290 130 239 305 305 7 309 336 286 231 262 27 136 108 75 52 66 45 280 214 216 196 185 180 185 196 200 198 194 187 193 191 204 212 221 216 201 195 205 206 210 207 209
357 291 66 2 253 210 285 335 287 250 324 337 28 91 6 3 351 360 30 350 283 232 209 203 182 181 185 191 195 193 202 204 196 199 207 211 212 201 211 210 208 206 203 205
307 260 298 263 187 345 282 309 290 277 272 313 324 84 16 261 333 341 2 7 135 129 157 172 161 166 173 177 170 179 199 211 206 208 211 207 205 202 197 201 201 206 210 208
48 306 287 295 109 310 293 308 305 304 353 283 273 301 17 4 351 336 68 52 131 152 145 148 160 173 164 176 171 185 192 204 202 206 208 202 198 192 192 199 200 203 205 208
71 236 298 207 186 160 257 234 285 284 281 260 292 79 100 58 41 75 55 97 98 139 156 151 157 164 169 154 169 189 196 200 194 195 196 195 192 192 196 199 197 201 201 205
219 272 257 275 304 315 289 296 265 271 273 292 260 312 148 324 348 327 129 152 135 139 120 107 130 143 150 170 183 188 180 181 182 184 185 190 190 194 195 195 200 205 207 209
237 265 279 272 282 285 280 278 269 240 241 268 349 328 327 345 350 343 81 115 135 147 157 165 171 170 173 181 180 176 175 179 179 181 183 187 188 190 192 199 203 209 213 217
197 271 301 289 280 282 277 261 252 253 254 259 271 288 33 14 20 92 72 69 102 145 172 191 191 199 192 192 191 185 185 184 181 183 186 187 190 194 200 204 207 212 219 222
228 270 307 282 339 311 279 337 204 210 235 252 236 63 19 52 59 54 67 63 44 20 356 234 225 222 221 217 209 203 197 189 190 193 195 196 197 201 205 205 207 213 219 225
241 244 277 292 304 250 58 65 50 266 10 270 287 304 8 20 39 56 45 31 40 29 337 292 280 272 258 240 216 206 197 196 198 202 203 203 203 206 207 210 217 225 227 228
233 245 268 272 289 295 238 100 112 213 61 18 349 340 339 345 233 73 39 26 14 5 354 345 327 300 265 232 218 205 198 198 202 208 209 207 207 212 214 219 224 226 226 227
191 235 242 182 269 273 49 39 13 243 148 24 18 37 21 334 266 79 4 358 356 356 356 343 334 315 283 244 220 211 209 206 214 216 216 213 212 214 219 222 222 219 219 225
167 188 219 228 253 280 35 55 312 204 112 31 22 25 18 25 13 330 341 359 3 356 347 341 332 321 320 298 226 225 220 220 226 215 206 206 209 214 215 214 213 218 225 237
180 177 195 194 231 252 17 150 280 39 91 45 20 1 342 332 333 331 334 349 354 346 339 333 311 302 296 272 236 233 231 227 205 198 201 205 208 215 214 212 220 225 233 243
216 203 196 198 218 128 79 84 119 15 311 48 334 4 304 276 279 306 309 325 328 327 320 314 298 288 272 253 245 255 270 173 201 194 195 191 195 209 219 214 221 233 236 251
228 180 210 179 230 227 191 149 289 291 289 309 311 308 311 317 325 322 328 337 334 338 333 328 318 308 298 224 223 160 277 201 184 179 168 174 184 201 213 226 228 235 248 257
285 161 225 251 264 21 221 208 232 241 243 263 329 307 317 319 322 338 333 343 345 343 349 349 353 7 42 59 80 61 79 99 113 113 124 108 110 318 273 268 268 263 269 268
187 218 201 236 199 164 166 142 154 191 170 334 322 322 357 359 349 2 32 22 22 22 22 34 39 48 51 70 82 78 87 118 129 136 170 238 244 243 267 287 290 279 279 274
Height
795 799 786 785 782 785 786 788 774 762 758 762 760 758 750 744 744 748 744 746 756 763 768 772 776 779 783 790 794 796 799 804 808 811 813 815 818 821 823 825 827 828 830 831
793 787 784 786 785 786 782 780 771 757 759 760 753 749 740 737 741 740 745 748 756 761 767 772 775 778 782 788 793 797 800 803 806 809 811 814 816 818 820 823 825 826 828 830
797 784 784 785 784 779 772 768 765 765 759 758 755 749 738 735 735 740 742 747 753 759 765 770 774 777 781 786 791 797 800 803 805 809 812 814 816 817 819 821 822 825 826 828
786 780 786 780 779 780 773 768 765 763 765 774 755 767 733 731 736 739 745 746 749 755 761 767 771 775 779 784 790 795 800 804 805 810 811 813 814 816 817 819 820 822 824 826
785 783 783 778 776 776 767 762 763 760 759 763 753 758 734 731 734 734 733 741 744 750 756 762 766 770 776 781 788 794 800 802 805 811 812 813 814 815 816 818 819 821 823 824
787 782 787 777 774 774 768 764 749 752 752 768 755 759 736 734 727 727 729 733 738 742 750 756 765 771 773 774 780 790 797 800 803 808 812 815 814 812 814 815 818 820 822 822
782 775 780 784 775 768 765 758 769 766 762 754 749 754 742 736 737 734 729 733 737 741 746 753 761 767 772 773 775 779 791 794 802 805 808 811 817 810 811 813 815 818 820 820
799 792 779 782 781 779 773 773 778 784 768 758 751 753 746 745 745 746 745 741 738 743 749 755 760 766 770 774 777 780 788 781 790 801 804 814 813 804 807 812 814 817 819 820
799 781 777 782 782 784 771 769 772 774 762 769 746 738 740 746 746 747 748 750 749 747 748 753 758 762 767 772 777 781 787 793 794 800 805 811 807 803 802 807 810 814 817 817
800 800 776 778 782 781 781 776 774 767 778 768 743 744 752 764 760 750 748 749 749 751 752 754 758 763 766 771 774 776 782 786 791 796 802 803 803 799 801 806 811 813 815 816
804 805 779 775 774 776 775 769 771 774 770 772 755 749 752 773 754 754 751 753 753 754 756 757 760 765 769 772 774 777 780 785 787 791 796 797 796 798 801 806 809 811 813 814
803 801 798 774 776 779 781 776 775 777 768 761 765 757 751 753 754 755 753 754 754 754 756 760 765 768 768 773 774 778 780 785 786 789 792 793 796 798 800 804 807 809 811 811
806 798 796 770 781 780 779 773 777 776 775 769 762 751 751 751 749 752 752 753 754 756 757 756 759 762 765 766 770 775 779 781 784 787 790 792 793 795 798 802 804 807 809 809
813 802 796 787 775 779 781 773 776 778 779 758 752 743 749 746 746 746 750 752 755 759 762 761 763 766 768 771 775 778 778 779 782 783 785 788 791 794 798 800 803 805 807 808
810 803 794 789 784 780 777 775 776 776 774 771 749 756 751 749 754 750 749 753 756 758 761 763 763 765 767 770 772 773 775 778 780 783 785 787 790 794 796 799 801 803 805 806
809 801 797 795 773 782 779 768 767 770 769 767 762 762 754 754 753 753 753 755 756 758 761 762 764 766 768 770 772 773 775 777 778 780 783 786 790 793 795 796 799 802 803 805
805 803 795 788 780 774 760 751 758 765 765 763 763 755 756 757 759 759 757 757 757 758 759 761 763 764 766 768 770 771 774 776 778 780 783 786 789 791 793 796 798 800 801 802
798 803 800 793 787 778 764 762 763 764 765 763 762 759 760 762 763 763 762 761 760 762 762 763 763 764 765 767 769 771 773 776 778 780 783 785 788 790 792 794 796 798 799 800
804 800 801 799 787 764 755 766 762 764 771 770 768 762 762 763 761 764 766 766 765 764 764 764 764 764 765 766 768 770 773 775 777 779 781 783 785 787 790 792 793 795 796 797
806 803 800 795 798 776 764 766 766 764 764 772 770 768 767 764 758 765 768 767 766 766 766 766 766 765 765 765 767 769 770 772 773 775 778 780 783 785 786 788 790 792 793 794
803 803 801 796 800 775 763 767 769 767 771 770 771 771 770 769 774 773 771 769 769 769 767 766 765 765 765 765 766 767 769 770 773 775 777 778 780 782 785 786 787 788 789 790
777 785 791 788 796 784 767 769 770 773 773 773 773 774 775 775 774 774 773 773 772 771 770 768 767 766 765 766 766 767 768 770 772 773 776 778 779 781 782 784 785 786 787 788
773 760 766 775 767 764 768 772 773 774 775 773 775 776 777 778 777 776 776 775 774 773 771 769 767 765 765 766 767 768 768 769 771 773 775 777 778 780 781 782 784 785 785 786
762 763 762 768 759 761 768 773 774 773 773 774 776 777 777 776 776 776 775 775 774 773 771 769 767 766 766 766 767 768 769 770 772 774 776 777 778 780 781 781 780 781 781 782
754 764 760 766 764 767 769 772 772 772 773 775 776 777 777 776 775 776 775 775 775 773 771 770 768 767 767 767 769 769 769 771 772 774 775 777 778 779 780 780 780 780 778 778
755 753 765 753 755 759 764 764 769 771 773 775 776 775 776 777 777 777 776 777 776 775 773 771 770 770 770 770 770 771 771 771 772 774 775 776 778 778 778 776 774 774 773 773